map of BKO home
BKO - Airport
Location
City:  Bamako, Bamako, Mali
Name:Modibo Keita International Airport
Old (Alt.):Bamako SÚnou International Airport
ICAO:GABS
IATA:BKO

Details
Type:Airport (Aerodrome, Airfield)
Use:Public/Civil, Military, International (customs port of entry)
Latitude:12░32'01"N (12.533544)
Longitude:7░57'00"W (-7.949943)
Datum:WGS 1984
Elevation:1247 ft (380 m)
Variation:4.07░W (WMM2015 magnetic declination)
0.10░ annual change
Runways:1
Longest:8879 × 148 ft (2706 × 45 m), paved

Time
Time Zone:UTC+0
Local Time:

Weather
METAR:GABS 141430Z VRB02KT 9999 FEW025 36/12 Q1010 NOSIG
TAF:GABS 141100Z 1412/1518 16008KT 8000 FEW030 PROB40
TEMPO 1506/1511 3500 HZ

Related Locations
Nearby:
Farthest:MTV: 12146 mi / 19547 km
Ablow [Mota Lava], Mota Lava Island, TOB, VU

Find:

   beyond  
but within

Other Information
Maps:
NOTAMs:
Links:
Sources:

  
  • flag of Mali
  

Sectional Chart

Flight Planning
at skyvector.com

Satellite Image

Google Maps Satellite view

 

Copyright © 2004-2018 Karl L. Swartz. All rights reserved.
The Great Circle Mapper name and logo are trademarks of the Great Circle Mapper.
All other trademarks mentioned herein belong to their respective owners.
Please see credits for attibutions and further copyright information.

  Follow gcmap on Facebook Follow gcmap on Twitter Follow gcmap on Google+ GCmap on LinkedIn

hCard Microformat

Geo Microformat